Regional Weather Roundup
Issued by NWS

Home | Current Version | Previous Version | Graphics & Text | Print | Product List | Glossary On
Versions: 1 2 3 4 5 6 7 8 9 10 11 12 13 14 15 16 17 18 19 20 21 22 23 24 25 26 27 28 29 30 31 32 33 34 35 36 37 38 39 40 41 42 43 44 45 46 47 48 49 50
000
ASUS43 KMKX 282200
RWRWI

WISCONSIN REGIONAL WEATHER ROUNDUP
NATIONAL WEATHER SERVICE MILWAUKEE/SULLIVAN WI
400 PM CST FRI NOV 28 2014

NOTE: "FAIR" INDICATES FEW OR NO CLOUDS BELOW 12,000 FEET WITH NO
SIGNIFICANT WEATHER AND/OR OBSTRUCTIONS TO VISIBILITY.

WIZ001-002-006>008-014>016-023>028-282300-
NORTHWEST WISCONSIN

CITY           SKY/WX    TMP DP  RH WIND       PRES   REMARKS
SUPERIOR ARPT  CLOUDY    18  11  74 SE3       29.92F
ASHLAND        CLOUDY    16  11  80 CALM      29.93F
HAYWARD        CLOUDY    17  10  74 E6        29.87F WCI   9
SIREN          CLOUDY    19  12  76 SE6       29.88S WCI  10
CUMBERLAND     CLOUDY    18  12  79 SE6       29.86R WCI   9
RICE LAKE      CLOUDY    19  13  77 E7        29.89S WCI  10
CHETEK         CLOUDY    19  13  77 E3        29.88S
LADYSMITH      CLOUDY    19  14  81 E6        29.89F WCI  11
EAU CLAIRE     CLOUDY    23  16  74 E7        29.87S WCI  15
MENOMONIE      CLOUDY    24  15  69 E7        29.87F WCI  15
NEW RICHMOND   FLURRIES  21  14  76 E6        29.88R WCI  13
OSCEOLA        CLOUDY    21  15  76 E7        29.89F WCI  12
$$

WIZ003>005-009-010-017-018-282300-
NORTH CENTRAL WISCONSIN

CITY           SKY/WX    TMP DP  RH WIND       PRES   REMARKS
MANITOWISH WTR LGT SNOW  14  11  87 SE3       29.88F
ARBOR VITAE    LGT SNOW  17  13  86 SE3       29.88F
WOODRUFF       LGT SNOW  17  13  86 SE3       29.88F
RHINELANDER    LGT SNOW  14  10  84 SE8       29.89S FOG     WCI   3
EAGLE RIVER    LGT SNOW  15  10  82 CALM      29.89F VSB 1
LAND O LAKES   LGT SNOW  15  12  88 SE5       29.90F WCI   7
PHILLIPS       FLURRIES  15  11  83 SE7       29.87S WCI   5
TOMAHAWK       LGT SNOW  15  12  85 CALM      29.90S
MEDFORD        LGT SNOW  17  12  83 SE7       29.87F WCI   7
MERRILL        LGT SNOW  17  13  85 SE3       29.90S
$$

WIZ029-030-035-036-043>047-282300-
CENTRAL WISCONSIN

CITY           SKY/WX    TMP DP  RH WIND       PRES   REMARKS
WAUSAU         FLURRIES  18  13  80 SE7       29.90F WCI   9
MOSINEE        NOT AVBL
MARSHFIELD     CLOUDY    21  14  74 E9        29.86F WCI  11
STEVENS POINT  CLOUDY    18  14  86 E6        29.93F WCI   9
WAUPACA        CLOUDY    23  17  77 E7        29.96F WCI  15
WAUTOMA        NOT AVBL
WISC RAPIDS    CLOUDY    23  15  71 E7        29.91F WCI  15
CAMP DOUGLAS   NOT AVBL
$$

WIZ011>013-019>022-031-037>040-048>050-282300-
NORTHEAST WISCONSIN

CITY           SKY/WX    TMP DP  RH WIND       PRES   REMARKS
ANTIGO         LGT SNOW  14  11  88 SE8       29.91S WCI   2
SHAWANO        LGT SNOW  22  18  85 E3        29.98F
OCONTO         CLOUDY    21  20  96 CALM      30.00S VSB 3/4
STURGEON BAY   CLOUDY    19  16  86 E5        29.99S WCI  13
GREEN BAY      LGT SNOW  25  22  88 CALM      29.98F FOG
MANITOWOC      NOT AVBL
APPLETON       CLOUDY    23  18  80 SE5       29.96F WCI  17
CLINTONVILLE   CLOUDY    21  18  86 SE3       29.97F
OSHKOSH        CLOUDY    26  19  74 MISG      29.96F
$$

WIZ032>034-041-042-053>061-282300-
SOUTHWEST WISCONSIN

CITY           SKY/WX    TMP DP  RH WIND       PRES   REMARKS
LA CROSSE      MIX PCPN  29  20  69 SE9       29.89R WCI  20
SPARTA         MIX PCPN  26  17  68 S5        29.90F WCI  21
VIROQUA        CLOUDY    25  19  78 SE7       29.87R WCI  17
BOSCOBEL       CLOUDY    28  19  69 E5        29.91F WCI  23
PRAIRIE DU CHI MOCLDY    29  20  70 E7        29.89F WCI  22
PLATTEVILLE    FAIR      28  23  79 CALM      29.90F
$$

WIZ056-057-062-063-064-067-068-282300-
SOUTH CENTRAL WISCONSIN

CITY           SKY/WX    TMP DP  RH WIND       PRES   REMARKS
REEDSBURG      CLOUDY    25  18  74 SE3       29.91F
BARABOO/DELLS  MOCLDY    25  18  74 SE7       29.92S WCI  17
LONE ROCK      MOCLDY    30  19  63 SE9       29.92F WCI  22
MINERAL POINT  MOCLDY    28  23  80 SE9       29.89F WCI  20
MADISON        CLOUDY    27  20  75 S12       29.94F WCI  17
MIDDLETON      CLOUDY    28  21  74 S9        29.93F WCI  20
WATERTOWN      CLOUDY    26  20  77 S5        29.97R WCI  21
MONROE         PTCLDY    28  25  86 S8        29.92S WCI  20
JANESVILLE     CLOUDY    30  25  80 S6        29.95R WCI  24
$$

WIZ051-052-058>065-066-070>072-282300-
SOUTHEAST WISCONSIN

CITY           SKY/WX    TMP DP  RH WIND       PRES   REMARKS
MILWAUKEE      MOCLDY    29  18  63 S8        29.98F WCI  21
WAUKESHA       MOCLDY    25  16  68 SE12      29.98S WCI  14
MILWAUKEE/TIMM MOCLDY    28  18  64 S9        29.99F WCI  20
RACINE         MOCLDY    30  20  66 S9        29.99F WCI  22
BURLINGTON     CLOUDY    27  20  75 S6        29.96F WCI  20
KENOSHA        MOCLDY    29  21  72 S7        29.98S WCI  22
FOND DU LAC    CLOUDY    27  18  69 S7        29.96F WCI  19
SHEBOYGAN      CLOUDY    29  23  78 S13       29.97F WCI  19
WEST BEND      CLOUDY    28  19  69 S8        29.97S WCI  20
JUNEAU         CLOUDY    25  19  77 SE8       29.97S WCI  17
$$

LSZ147-162-282300-
LAKE SUPERIOR

STATION/POSITION TIME  TEMP    WIND        PRES    WAVE
                       AIR SEA DIR/SP/G            HT/PER
                 (UTC) (F)     (DEG/KT/KT) (MB)    (FT/S)
DEVILS ISLAND    2100   20     190/  5/  6 1015.5F
PORT WING        2140   18     160/  3/  4 1013.5F
SAXON HARBOR     2100   19     220/  5/  7 1014.2F
$$

LMZ867-665-643>646-282300-
LAKE MICHIGAN

STATION/POSITION TIME  TEMP    WIND        PRES    WAVE
                       AIR SEA DIR/SP/G            HT/PER
                 (UTC) (F)     (DEG/KT/KT) (MB)    (FT/S)
CHAMBERS ISLAND  2100   22      70/  2/  5 1016.6F
N MID LAKE BUOY  2050   26 42  120/  4/  6 1018.3F   2/ 4
NORTHPORT PIER   2119   22      30/  5/  8 1016.9F
SISTER BAY       2013             CALM       N/A
ALGOMA LAKESHORE 1943             CALM       N/A
KEWAUNEE LAKESHO 2106   23      CALM  /  2 1014.8F
SHEBOYGAN LAKESH 2100   33 35  180/ 25/ 27 1016.2F
PORT WASHINGTON  2100   31     210/  9/ 15 1016.3
MILWAUKEE LAKESH 2100   30     190/ 14/ 17   N/A
S MID LAKE BUOY  2050   32 42  150/ 21/ 27 1017.1F   5/ 5
KENOSHA   LAKESH 2100   31     180/ 12/ 19 1015.6S
$$

TC  - TEMPERATURE IN CELSIUS
VSB - VISIBILITY IN STATUTE MILES
WCI - WIND CHILL INDEX
HX  - HEAT INDEX



USA.gov is the U.S. government's official web portal to all federal, state and local government web resources and services.